Wind_Speed
47 46 45 45 45 44 44 44 43 42 41 40 39 38 37 37 36 35 34 33 32 32 32 31 31 31 31 31 30 30 30 29 28 27 28 28 28 28
46 45 45 45 45 45 44 44 43 41 40 39 38 37 36 35 34 33 33 32 32 32 32 31 31 31 31 30 29 29 28 28 27 27 27 28 27 27
46 45 45 45 45 45 44 43 41 40 38 37 36 35 35 34 33 32 32 32 31 32 32 31 31 30 30 29 28 28 28 28 27 27 27 27 27 28
46 45 45 45 45 43 42 41 39 37 36 35 35 34 34 33 32 31 31 31 31 31 31 31 30 30 30 29 29 29 28 28 28 28 28 28 28 28
45 45 45 44 43 41 40 38 37 36 35 34 33 33 32 31 31 31 31 31 31 31 30 30 30 30 30 30 30 30 30 29 29 29 29 29 29 30
44 44 43 42 41 39 38 36 35 34 33 33 32 32 31 31 31 31 31 31 31 31 31 30 31 31 31 31 31 31 31 31 31 31 31 31 32 32
43 42 41 39 38 37 35 34 33 32 32 31 31 31 31 31 31 31 31 31 31 31 31 31 31 31 32 32 32 32 32 32 32 32 33 33 33 34
40 39 37 36 35 34 33 32 32 32 31 31 31 31 31 31 31 31 31 31 31 31 32 32 33 33 33 34 34 34 34 34 34 35 35 35 35 35
37 36 35 34 33 32 32 32 31 31 30 30 31 31 31 31 32 32 32 32 33 33 33 34 34 34 35 35 35 35 35 36 36 37 37 37 37 38
35 34 33 32 31 31 31 31 31 31 31 31 31 32 32 33 33 33 33 34 34 34 34 35 35 36 36 36 36 36 37 37 38 38 39 39 39 40
33 32 32 31 31 31 30 30 31 31 31 32 32 32 33 34 34 35 35 35 35 36 36 36 37 37 37 37 38 38 38 39 39 40 40 40 41 41
31 31 31 31 30 30 31 31 31 31 32 33 33 34 34 35 35 36 36 36 36 37 37 38 38 38 38 39 39 39 39 40 40 41 41 41 42 42
30 30 30 30 31 31 31 31 32 32 33 33 34 34 35 35 36 36 36 37 37 38 38 39 40 39 39 40 40 41 41 41 41 42 42 42 42 43
30 30 30 30 31 32 32 32 32 33 33 34 34 35 35 36 37 37 37 38 38 39 40 40 40 40 40 40 41 42 42 43 43 43 43 43 43 43
29 30 31 31 32 33 33 33 33 33 34 35 35 36 37 37 38 38 38 39 40 40 41 40 40 40 41 41 42 43 44 44 44 43 43 43 43 43
30 31 32 32 33 33 33 34 34 34 35 35 36 37 38 38 39 39 40 40 41 41 41 41 41 41 42 43 43 44 44 44 44 43 42 43 43 43
30 31 32 32 33 33 34 35 35 36 36 37 38 39 39 40 40 41 41 41 42 42 42 42 42 43 43 44 44 45 45 44 44 43 43 43 44 44
31 32 33 34 34 35 35 36 37 37 38 39 40 40 41 41 41 42 42 42 42 42 42 43 43 43 44 45 46 45 45 45 44 44 43 42 43 44
33 33 34 35 35 36 36 37 38 39 40 40 41 41 42 42 42 43 43 43 43 43 43 44 44 44 44 45 46 46 45 45 45 44 44 42 41 42
33 34 35 36 36 37 38 39 40 40 41 41 42 42 43 43 43 43 43 43 43 43 44 45 45 45 45 45 45 47 47 46 45 45 44 43 42 41
34 35 36 37 38 38 39 40 41 41 41 42 42 43 43 43 43 43 43 43 44 44 44 45 46 46 46 46 45 46 47 47 46 45 44 43 41 39
35 36 37 38 39 39 40 41 41 42 42 43 43 43 43 43 43 44 44 44 44 45 46 47 47 47 47 46 46 45 46 47 46 45 44 42 39 37
36 37 37 38 39 39 40 41 41 42 43 43 43 43 43 43 43 44 44 44 45 46 46 47 47 47 47 47 46 45 45 45 45 43 43 42 40 38
Wind_Direction
286 287 288 289 291 292 293 293 294 294 294 294 295 296 297 297 298 298 299 299 299 299 298 298 297 296 295 294 293 290 290 289 286 280 277 277 272 266
285 286 287 288 289 290 291 291 292 292 291 292 293 294 295 296 297 298 298 299 299 299 298 298 297 296 295 295 293 292 290 289 287 282 279 277 274 268
283 284 285 287 288 289 289 290 290 289 289 291 292 293 294 295 296 297 298 299 299 299 299 298 298 296 295 294 293 292 291 289 287 284 281 277 273 268
282 283 284 286 287 287 288 288 288 288 288 290 291 293 293 295 296 297 298 298 298 299 299 298 297 297 296 294 292 292 290 288 287 284 281 278 274 269
281 282 283 285 285 285 286 286 286 287 288 289 290 291 293 294 296 297 297 297 298 299 298 297 297 296 296 294 292 291 290 289 286 284 281 278 275 271
280 281 282 283 283 284 284 284 285 286 286 288 289 291 292 293 295 296 296 297 298 298 298 297 296 296 295 294 293 292 290 289 287 285 282 279 276 273
279 280 280 281 281 282 282 283 284 284 286 287 288 290 291 292 294 296 297 298 298 298 297 297 297 296 295 294 293 292 291 289 287 285 283 280 278 275
278 278 279 280 280 281 281 281 283 284 284 286 288 290 291 292 294 295 297 298 297 297 297 297 297 296 295 294 294 293 291 289 288 287 285 281 278 275
277 277 278 278 278 279 279 280 282 282 284 286 288 290 291 292 294 295 296 297 296 296 296 296 296 296 295 294 293 293 291 290 288 287 285 282 279 276
276 276 276 276 277 277 279 280 281 282 285 287 289 290 291 292 294 295 296 296 296 296 296 296 296 296 295 294 294 294 293 291 289 287 285 282 280 277
274 275 275 275 276 277 278 280 281 283 285 287 289 290 292 293 294 295 295 296 295 296 296 297 297 297 296 295 294 294 294 293 290 288 285 283 280 278
274 274 274 274 275 276 277 279 282 283 286 288 289 291 292 293 294 295 295 295 295 295 296 297 297 296 296 295 295 295 294 294 292 289 286 284 281 279
274 273 273 273 275 277 278 280 282 284 286 288 290 291 293 294 295 295 296 296 296 296 296 297 297 296 295 295 296 296 295 295 294 291 288 285 282 280
273 273 273 275 276 278 280 281 284 285 287 288 290 292 293 294 295 296 296 297 296 297 297 297 297 296 296 295 296 296 296 296 295 292 290 286 283 281
273 273 274 275 277 279 281 283 285 286 287 289 291 293 294 295 296 296 296 296 297 298 298 298 297 297 296 296 296 296 296 296 295 294 291 288 285 282
275 276 276 277 279 280 282 284 285 286 288 290 292 294 295 296 296 297 297 297 297 298 298 298 298 298 298 297 297 297 297 296 296 295 293 290 287 284
277 278 278 278 279 281 282 284 286 287 289 291 293 294 296 296 297 297 297 297 297 298 298 298 299 299 299 299 298 298 297 297 296 296 294 292 289 286
277 279 279 279 280 282 284 285 286 288 290 292 293 294 295 296 297 297 297 297 297 298 298 298 299 300 300 300 299 298 297 297 297 296 295 293 290 287
278 278 279 280 281 282 284 286 287 289 290 292 293 294 295 296 297 297 297 297 298 298 298 298 299 300 301 301 300 299 298 298 298 297 296 294 292 289
279 279 280 281 283 284 285 287 288 289 291 292 293 294 295 296 296 297 298 298 298 298 299 299 300 301 302 301 301 300 299 298 298 297 296 295 292 289
280 280 281 283 284 285 286 287 289 290 291 292 293 294 295 296 296 297 298 298 299 299 299 300 301 302 302 302 302 301 300 299 298 298 296 295 293 290
280 281 282 283 285 286 287 288 289 290 291 292 294 294 295 295 296 297 298 299 299 300 300 301 302 303 303 303 303 302 300 300 300 299 297 296 293 289
280 282 283 284 286 287 288 289 290 291 293 293 294 294 295 295 296 297 298 299 300 300 301 301 302 303 303 304 304 302 301 300 300 299 298 296 294 291
Height
5752 5751 5749 5747 5744 5742 5740 5738 5736 5733 5730 5727 5724 5721 5718 5715 5713 5710 5707 5704 5702 5699 5696 5694 5692 5689 5687 5685 5683 5681 5680 5678 5676 5675 5675 5675 5675 5675
5741 5740 5738 5736 5734 5732 5730 5727 5725 5723 5720 5717 5714 5712 5709 5707 5704 5701 5699 5696 5693 5691 5688 5686 5683 5681 5679 5677 5675 5673 5672 5670 5668 5667 5667 5666 5666 5667
5730 5729 5727 5725 5723 5721 5719 5717 5714 5712 5710 5707 5705 5703 5700 5698 5695 5693 5690 5688 5685 5683 5680 5677 5675 5673 5671 5669 5667 5665 5664 5662 5661 5660 5659 5659 5658 5659
5719 5718 5716 5714 5712 5710 5708 5706 5704 5702 5700 5698 5696 5694 5692 5689 5687 5685 5682 5680 5677 5675 5672 5669 5667 5665 5663 5661 5659 5657 5656 5654 5653 5652 5651 5650 5650 5650
5707 5706 5705 5703 5701 5700 5698 5696 5694 5692 5691 5689 5687 5685 5683 5681 5679 5676 5674 5671 5669 5666 5664 5661 5659 5657 5655 5653 5651 5649 5647 5646 5645 5644 5643 5642 5641 5641
5696 5695 5693 5692 5690 5689 5687 5686 5684 5683 5681 5680 5678 5676 5674 5672 5670 5668 5666 5663 5661 5658 5655 5653 5651 5649 5646 5644 5642 5640 5639 5637 5636 5634 5633 5633 5632 5632
5684 5683 5682 5681 5680 5678 5677 5676 5675 5674 5673 5671 5669 5668 5666 5664 5662 5660 5657 5655 5652 5650 5647 5645 5642 5640 5638 5635 5633 5631 5629 5627 5626 5625 5623 5622 5622 5621
5673 5672 5671 5670 5670 5669 5668 5667 5666 5665 5664 5662 5661 5659 5657 5655 5653 5651 5649 5646 5644 5641 5639 5636 5633 5631 5628 5626 5624 5621 5619 5617 5615 5614 5612 5611 5610 5610
5663 5662 5661 5661 5660 5659 5659 5658 5657 5656 5655 5654 5652 5650 5648 5646 5644 5642 5640 5637 5634 5632 5629 5627 5624 5621 5618 5615 5613 5611 5609 5606 5604 5602 5601 5599 5598 5597
5653 5652 5652 5651 5651 5650 5650 5649 5648 5647 5646 5645 5643 5641 5639 5637 5635 5633 5630 5627 5625 5622 5619 5617 5614 5611 5608 5605 5602 5600 5597 5595 5592 5590 5588 5587 5585 5584
5643 5643 5642 5642 5642 5641 5641 5640 5639 5638 5637 5635 5633 5632 5630 5627 5625 5623 5620 5618 5615 5612 5609 5606 5603 5600 5597 5594 5591 5588 5585 5582 5580 5577 5575 5573 5572 5570
5634 5633 5633 5633 5633 5632 5632 5631 5630 5629 5628 5626 5624 5622 5620 5617 5615 5612 5610 5607 5604 5601 5598 5595 5592 5589 5585 5582 5579 5576 5573 5570 5566 5564 5561 5559 5557 5556
5625 5624 5624 5624 5624 5623 5623 5622 5621 5619 5618 5616 5614 5612 5610 5607 5605 5602 5599 5596 5593 5590 5587 5584 5580 5577 5573 5570 5566 5563 5560 5556 5553 5550 5547 5544 5542 5541
5616 5616 5615 5615 5615 5614 5613 5612 5611 5610 5608 5606 5604 5602 5599 5597 5594 5591 5588 5585 5582 5579 5575 5572 5568 5565 5561 5557 5553 5550 5546 5543 5539 5536 5532 5529 5527 5526
5607 5607 5606 5606 5605 5605 5604 5603 5601 5600 5598 5596 5594 5591 5589 5586 5583 5580 5577 5574 5570 5567 5563 5560 5556 5552 5549 5545 5541 5536 5533 5529 5525 5522 5518 5515 5512 5510
5598 5598 5597 5597 5596 5595 5594 5592 5591 5589 5587 5585 5583 5581 5578 5575 5572 5569 5566 5562 5558 5555 5551 5547 5544 5540 5536 5531 5527 5523 5519 5515 5511 5507 5504 5500 5497 5494
5589 5589 5588 5587 5586 5585 5584 5582 5581 5579 5577 5575 5572 5570 5567 5564 5560 5557 5554 5550 5546 5542 5538 5535 5531 5527 5522 5518 5513 5509 5505 5501 5497 5493 5490 5486 5481 5478
5581 5580 5578 5577 5576 5575 5574 5572 5570 5568 5566 5563 5561 5558 5555 5552 5548 5545 5541 5538 5534 5530 5526 5522 5518 5514 5509 5503 5499 5495 5490 5486 5482 5479 5475 5471 5467 5462
5571 5569 5568 5567 5566 5564 5563 5561 5559 5557 5554 5552 5549 5546 5543 5539 5536 5532 5529 5525 5521 5517 5513 5509 5505 5500 5496 5491 5484 5479 5475 5471 5468 5464 5460 5456 5453 5448
5560 5559 5558 5556 5555 5553 5552 5550 5547 5545 5542 5539 5536 5533 5530 5527 5523 5519 5516 5512 5508 5504 5499 5495 5491 5487 5482 5477 5472 5465 5460 5457 5453 5449 5445 5441 5438 5434
5550 5548 5547 5545 5544 5542 5540 5538 5535 5533 5530 5527 5524 5521 5517 5514 5510 5506 5503 5499 5495 5491 5486 5481 5476 5472 5467 5463 5458 5452 5445 5440 5437 5434 5430 5426 5423 5419
5539 5537 5536 5534 5532 5530 5528 5525 5523 5520 5517 5514 5511 5508 5504 5501 5497 5493 5489 5485 5481 5477 5473 5467 5462 5458 5453 5448 5443 5438 5432 5426 5421 5418 5414 5411 5408 5406
5527 5526 5524 5522 5520 5518 5516 5513 5510 5508 5504 5501 5498 5495 5491 5488 5484 5480 5476 5472 5468 5463 5459 5454 5448 5443 5438 5433 5429 5424 5418 5413 5408 5404 5399 5394 5393 5391